User: anonymous   Login
Location: Fort Worth, Tx
(32.7431°N, 97.3695°W)
Time: 07:49:11
(UTC-04:00)
Language:

Envisat - Orbit

View from above orbital plane
View from above orbital plane
View from above satellite
View from above satellite

Ground track
Ground track

The orbit data is extracted from the following two-line orbital elements,

1 27386U 02009A   24206.17863469  .00000374  00000-0  13580-3 0  9999
2 27386  98.2845 165.9864 0001399  84.7573  46.2411 14.38613240173897
Epoch (UTC): 24 July 2024 04:17:14
Eccentricity: 0.0001399
inclination: 98.2845°
perigee height: 762 km
apogee height: 764 km
right ascension of ascending node: 165.9864°
argument of perigee: 84.7573°
revolutions per day: 14.38613240
mean anomaly at epoch: 46.2411°
orbit number at epoch: 17389

The dashed part of the orbit path shows where the satellite is in the earth's shadow,  

DLR